This is the latest recevied weather packets stored in our database for station/object N8GD. If no packets are shown the sender has not sent any weather packets the latest 10 day(s).
| Time | Temp. | Humidity | Pressure | Rain* | Wind** | Luminosity | Snow |
|---|---|---|---|---|---|---|---|
| 1777594911 | 7.78° C | 77% | 1015.1 hPa | 0 mm | - | - | - |
| 1777594570 | 8.33° C | 77% | 1015.1 hPa | 0 mm | - | - | - |
| 1777593671 | 8.89° C | 74% | 1015.1 hPa | 0 mm | - | - | - |
| 1777593105 | 9.44° C | 72% | 1015 hPa | 0 mm | - | - | - |
| 1777592770 | 9.44° C | 71% | 1015 hPa | 0 mm | - | - | - |
| 1777591871 | 10° C | 69% | 1014.9 hPa | 0 mm | - | - | - |
| 1777590970 | 10.56° C | 66% | 1014.9 hPa | 0 mm | - | - | - |
| 1777590070 | 10.56° C | 66% | 1014.8 hPa | 0 mm | - | - | - |
| 1777589170 | 10.56° C | 68% | 1015 hPa | 0 mm | - | - | - |
| 1777588270 | 10.56° C | 70% | 1015 hPa | 0 mm | - | - | - |
| 1777587833 | 10° C | 69% | 1015 hPa | 0 mm | - | - | - |
| 1777586931 | 8.89° C | 73% | 1015 hPa | 0 mm | - | - | - |
| 1777586033 | 8.33° C | 77% | 1015 hPa | 0 mm | - | - | - |
| 1777585131 | 8.33° C | 77% | 1015 hPa | 0 mm | - | - | - |
| 1777584162 | 8.33° C | 74% | 1014.8 hPa | 0 mm | - | - | - |
| 1777583262 | 9.44° C | 69% | 1014.5 hPa | 0 mm | - | - | - |
| 1777582362 | 9.44° C | 65% | 1014.4 hPa | 0 mm | - | - | - |
| 1777581463 | 10° C | 63% | 1014.3 hPa | 0 mm | - | - | - |
| 1777580562 | 10° C | 62% | 1014.3 hPa | 0 mm | - | - | - |
| 1777579663 | 10.56° C | 60% | 1014.2 hPa | 0 mm | - | - | - |
| 1777578762 | 11.67° C | 62% | 1014.4 hPa | 0 mm | - | - | - |
| 1777577863 | 10.56° C | 69% | 1014.4 hPa | 0 mm | - | - | - |
| 1777576963 | 10° C | 66% | 1014.6 hPa | 0 mm | - | - | - |
| 1777576063 | 9.44° C | 69% | 1014.9 hPa | 0 mm | - | - | - |
| 1777575162 | 8.89° C | 72% | 1014.7 hPa | 0 mm | - | - | - |
* Rain latest hour (hover to see other rain measurements)
** Current wind speed in m/s (hover to see current wind gust speed)